KA3RQR Weather Reports


time (UTC)temp
F
wind
direction
speed
knots
gust
knots
rain 1hr
in
rain 24hr
in
rain mn
in
humidity
%
barometer
mb
20260504174156 71 183 0.0 0.0 0.00 0.00 0.00 39 1012.5
20260504173653 72 186 0.9 0.9 0.00 0.00 0.00 38 1012.7
20260504173150 71 334 2.6 4.3 0.00 0.00 0.00 42 1012.8
20260504172647 70 294 2.6 4.3 0.00 0.00 0.00 41 1012.7
20260504172143 70 146 5.2 6.1 0.00 0.00 0.00 39 1012.8
20260504171639 70 212 3.5 5.2 0.00 0.00 0.00 38 1012.8
20260504171137 69 175 0.9 1.7 0.00 0.00 0.00 40 1012.8
20260504170633 70 158 2.6 4.3 0.00 0.00 0.00 39 1013.1
20260504170131 70 204 2.6 2.6 0.00 0.00 0.00 40 1013.2
20260504151016 65 215 2.6 4.3 0.00 0.00 0.00 41 1014.5
20260504150514 65 197 1.7 1.7 0.00 0.00 0.00 44 1014.2
20260504140940 62 232 3.5 4.3 0.00 0.00 0.00 45 1014.3
20260504140436 62 119 3.5 4.3 0.00 0.00 0.00 45 1014.3
20260504130401 55 155 1.7 1.7 0.00 0.00 0.00 55 1014.7
20260504110248 49 151 2.6 2.6 0.00 0.00 0.00 66 1015.4
20260504100211 48 160 0.0 0.0 0.00 0.00 0.00 69 1015.0
20260504090134 50 162 0.0 0.0 0.00 0.00 0.00 65 1015.2
20260504081604 50 157 0.9 0.9 0.00 0.00 0.00 63 1015.3
20260504081100 50 161 0.9 0.9 0.00 0.00 0.00 64 1015.1
20260504080557 50 159 1.7 1.7 0.00 0.00 0.00 65 1015.2
20260504050410 46 167 0.0 0.0 0.00 0.00 0.00 70 1016.0
20260504045907 45 167 0.0 0.0 0.00 0.00 0.00 70 1015.9
20260504045402 45 167 0.0 0.0 0.00 0.00 0.00 70 1016.2
20260504044859 44 167 0.0 0.0 0.00 0.00 0.00 69 1016.2
20260504044356 45 167 0.0 0.0 0.00 0.00 0.00 70 1015.9
20260504043854 44 167 0.0 0.0 0.00 0.00 0.00 69 1016.1
20260504043350 44 167 0.0 0.0 0.00 0.00 0.00 70 1016.0
20260504042848 44 167 0.0 0.0 0.00 0.00 0.00 70 1015.8
20260504042344 44 167 0.0 0.0 0.00 0.00 0.00 70 1016.1
20260504041840 44 167 0.0 0.0 0.00 0.00 0.00 71 1015.7
20260504041337 44 168 0.0 0.0 0.00 0.00 0.00 70 1015.9
20260504040833 44 168 0.0 0.0 0.00 0.00 0.00 70 1015.7
20260504040331 44 167 0.0 0.0 0.00 0.00 0.00 70 1015.8
20260504035826 44 168 0.0 0.0 0.00 0.00 0.00 70 1015.9
20260504035325 44 168 0.0 0.0 0.00 0.00 0.00 70 1016.1
20260504034821 44 168 0.0 0.0 0.00 0.00 0.00 70 1016.1
20260504034319 45 168 0.0 0.0 0.00 0.00 0.00 70 1016.0
20260504033816 44 166 0.0 0.0 0.00 0.00 0.00 69 1015.9
20260504033314 44 166 0.0 0.0 0.00 0.00 0.00 69 1016.1
20260504032810 44 166 0.0 0.0 0.00 0.00 0.00 70 1015.9
20260504032307 44 166 0.0 0.0 0.00 0.00 0.00 70 1015.8
20260504031804 45 166 0.0 0.0 0.00 0.00 0.00 70 1015.8
20260504031301 45 166 0.0 0.0 0.00 0.00 0.00 70 1015.5
20260504030757 46 166 0.0 0.0 0.00 0.00 0.00 69 1015.7
20260504030254 45 166 0.0 0.0 0.00 0.00 0.00 69 1015.6
20260504025750 46 166 0.0 0.0 0.00 0.00 0.00 69 1015.9
20260504025248 45 166 0.0 0.0 0.00 0.00 0.00 69 1015.7
20260504024744 46 166 0.0 0.0 0.00 0.00 0.00 69 1015.6
20260504024241 46 166 0.0 0.0 0.00 0.00 0.00 69 1015.6
20260504023738 46 166 0.0 0.0 0.00 0.00 0.00 67 1015.5
20260504023234 46 165 0.0 0.0 0.00 0.00 0.00 67 1015.7
20260504022730 47 165 0.0 0.0 0.00 0.00 0.00 66 1015.5
20260504022226 47 165 0.0 0.0 0.00 0.00 0.00 66 1015.6
20260504021724 47 165 0.0 0.0 0.00 0.00 0.00 66 1015.5
20260504021221 47 164 0.0 0.0 0.00 0.00 0.00 66 1015.4
20260504020718 48 164 0.0 0.0 0.00 0.00 0.00 65 1015.4
20260504020214 48 162 0.0 0.0 0.00 0.00 0.00 63 1015.3
20260504015711 48 162 0.0 0.0 0.00 0.00 0.00 62 1015.3
20260504015207 49 162 0.0 0.0 0.00 0.00 0.00 59 1015.2
20260504014703 49 161 0.0 0.0 0.00 0.00 0.00 59 1015.4
20260504014200 49 169 0.0 0.0 0.00 0.00 0.00 60 1015.2
20260504013658 49 168 0.0 0.0 0.00 0.00 0.00 57 1015.1
20260504013154 48 169 0.0 0.0 0.00 0.00 0.00 59 1014.9
20260504012651 49 169 0.0 0.0 0.00 0.00 0.00 60 1014.9
20260504012149 49 169 0.0 0.0 0.00 0.00 0.00 59 1014.9
20260504011646 48 169 0.0 0.0 0.00 0.00 0.00 58 1015.0
20260504011142 49 169 0.0 0.0 0.00 0.00 0.00 59 1014.9
20260504010638 49 169 0.0 0.0 0.00 0.00 0.00 55 1014.7
20260504010134 50 169 0.0 0.0 0.00 0.00 0.00 55 1014.9
20260504005631 50 169 0.0 0.0 0.00 0.00 0.00 54 1015.0
20260504005128 50 169 0.0 0.0 0.00 0.00 0.00 56 1014.9
20260504004626 50 169 0.0 0.0 0.00 0.00 0.00 52 1014.9
20260504004123 51 169 0.0 0.0 0.00 0.00 0.00 52 1014.8
20260504003619 51 169 0.0 0.0 0.00 0.00 0.00 52 1014.7
20260504003116 52 169 0.0 0.0 0.00 0.00 0.00 50 1014.7
20260504002613 52 169 0.0 0.0 0.00 0.00 0.00 50 1014.8
20260504002111 53 169 0.0 0.0 0.00 0.00 0.00 50 1014.8
20260504001608 53 169 0.0 0.0 0.00 0.00 0.00 47 1014.8
20260504001104 54 169 0.0 0.0 0.00 0.00 0.00 48 1014.7
20260504000601 54 169 0.0 0.0 0.00 0.00 0.00 45 1014.6
20260504000059 55 169 0.0 0.0 0.00 0.00 0.00 45 1014.7
20260503235557 56 169 0.0 0.0 0.00 0.00 0.00 45 1014.7
20260503235053 57 169 0.0 0.0 0.00 0.00 0.00 43 1014.4
20260503234551 58 176 0.0 0.0 0.00 0.00 0.00 41 1014.3
20260503234049 58 178 0.0 0.0 0.00 0.00 0.00 38 1014.5
20260503233545 59 182 0.0 0.0 0.00 0.00 0.00 37 1014.4
20260503233041 59 200 1.7 1.7 0.00 0.00 0.00 34 1014.4
20260503232539 60 188 0.9 0.9 0.00 0.00 0.00 33 1014.4
20260503232036 60 169 0.9 0.9 0.00 0.00 0.00 32 1014.3
20260503231534 60 84 0.9 1.7 0.00 0.00 0.00 32 1014.1
20260503231030 60 17 1.7 4.3 0.00 0.00 0.00 33 1014.4
20260503230527 60 181 0.0 0.0 0.00 0.00 0.00 32 1014.2
20260503230024 61 170 0.9 0.9 0.00 0.00 0.00 34 1014.3
20260503225521 61 182 0.9 1.7 0.00 0.00 0.00 32 1014.2
20260503225016 61 208 0.9 1.7 0.00 0.00 0.00 32 1014.3
20260503224514 62 178 0.9 0.9 0.00 0.00 0.00 31 1014.3
20260503224011 63 185 0.9 0.9 0.00 0.00 0.00 31 1014.4
20260503223509 63 194 0.9 0.9 0.00 0.00 0.00 30 1014.2
20260503223005 63 229 1.7 2.6 0.00 0.00 0.00 30 1014.3
20260503222503 64 197 0.9 0.9 0.00 0.00 0.00 29 1014.2
20260503222001 63 257 2.6 2.6 0.00 0.00 0.00 33 1014.4
20260503221459 63 216 4.3 5.2 0.00 0.00 0.00 29 1014.4
20260503220956 63 302 4.3 5.2 0.00 0.00 0.00 30 1014.5
20260503220452 63 211 0.9 1.7 0.00 0.00 0.00 31 1014.5
20260503215949 64 192 4.3 5.2 0.00 0.00 0.00 30 1014.2
20260503215446 64 198 1.7 2.6 0.00 0.00 0.00 30 1014.4
20260503214943 63 226 3.5 5.2 0.00 0.00 0.00 30 1014.4
20260503214441 63 155 0.9 1.7 0.00 0.00 0.00 30 1014.4
20260503213938 64 161 1.7 1.7 0.00 0.00 0.00 29 1014.5
20260503213436 63 196 4.3 6.1 0.00 0.00 0.00 29 1014.5
20260503212932 64 227 2.6 2.6 0.00 0.00 0.00 31 1014.6
20260503212430 63 168 0.0 0.9 0.00 0.00 0.00 31 1014.5
20260503211927 63 212 0.9 1.7 0.00 0.00 0.00 32 1014.5
20260503211424 63 197 5.2 6.1 0.00 0.00 0.00 29 1014.6
20260503210919 64 226 3.5 5.2 0.00 0.00 0.00 29 1014.4
20260503210416 63 281 1.7 1.7 0.00 0.00 0.00 31 1014.4
20260503205911 64 169 0.0 0.9 0.00 0.00 0.00 31 1014.4
20260503205408 63 226 1.7 1.7 0.00 0.00 0.00 32 1014.7
20260503204904 63 237 3.5 7.0 0.00 0.00 0.00 30 1014.9
20260503204402 64 221 1.7 1.7 0.00 0.00 0.00 30 1014.6
20260503203859 64 158 0.9 0.9 0.00 0.00 0.00 31 1014.7
20260503203356 63 184 1.7 1.7 0.00 0.00 0.00 32 1014.7
20260503202853 64 198 1.7 1.7 0.00 0.00 0.00 30 1014.7
20260503202351 62 184 0.0 0.9 0.00 0.00 0.00 32 1014.8
20260503201849 63 232 4.3 6.1 0.00 0.00 0.00 33 1014.8
20260503201346 62 160 1.7 2.6 0.00 0.00 0.00 33 1014.9
20260503200844 61 181 4.3 5.2 0.00 0.00 0.00 33 1014.8
20260503200339 62 205 2.6 2.6 0.00 0.00 0.00 34 1015.1
20260503195837 61 204 2.6 2.6 0.00 0.00 0.00 33 1015.1
20260503195333 63 249 2.6 2.6 0.00 0.00 0.00 39 1015.3
20260503194830 62 230 3.5 5.2 0.00 0.00 0.00 36 1015.3
20260503194326 62 235 0.9 1.7 0.00 0.00 0.00 32 1015.2
20260503193822 61 228 1.7 1.7 0.00 0.00 0.00 34 1015.5
20260503193318 62 68 1.7 1.7 0.00 0.00 0.00 33 1015.4
20260503192815 61 213 4.3 6.1 0.00 0.00 0.00 36 1015.5
20260503192310 61 218 2.6 4.3 0.00 0.00 0.00 37 1015.7
20260503191806 60 173 0.9 0.9 0.00 0.00 0.00 39 1015.7
20260503191304 60 206 2.6 2.6 0.00 0.00 0.00 36 1015.8
20260503190800 59 0 4.3 7.0 0.00 0.00 0.00 35 1015.9
20260503190257 59 168 0.9 2.6 0.00 0.00 0.00 37 1015.7
20260503185755 59 189 3.5 7.0 0.00 0.00 0.00 39 1015.7
20260503185250 59 244 3.5 4.3 0.00 0.00 0.00 37 1016.0
20260503184744 59 295 1.7 1.7 0.00 0.00 0.00 41 1016.0
20260503184241 59 205 2.6 2.6 0.00 0.00 0.00 38 1016.0
20260503183737 58 178 3.5 5.2 0.00 0.00 0.00 38 1016.1
20260503183235 58 250 4.3 6.1 0.00 0.00 0.00 37 1016.1
20260503182732 58 170 3.5 5.2 0.00 0.00 0.00 39 1016.1
20260503182231 58 195 6.1 7.8 0.00 0.00 0.00 37 1016.2
20260503181728 57 155 1.7 2.6 0.00 0.00 0.00 42 1016.5
20260503181225 57 225 5.2 9.6 0.00 0.00 0.00 37 1016.3
20260503180721 56 169 0.0 0.9 0.00 0.00 0.00 40 1016.3
20260503180220 57 238 3.5 4.3 0.00 0.00 0.00 40 1016.3
20260503175716 57 340 2.6 5.2 0.00 0.00 0.00 43 1016.5
20260503175214 57 205 0.9 1.7 0.00 0.00 0.00 39 1016.3
20260503174709 57 211 0.9 1.7 0.00 0.00 0.00 40 1016.4